Location: Keppel Henge
(44.7900°N, 80.9447°W)
Time: 05:55:28
(UTC-04:00)

Vanguard 2 - Visible Passes

Search period start: 23 July 2018 00:00
Search period end: 02 August 2018 00:00
Orbit: 553 x 2939 km, 32.9° (Epoch: 22 July)

Date Brightness Start Highest point End Pass type
(mag) Time Alt. Az. Time Alt. Az. Time Alt. Az.
23 Jul 10.6 00:18:42 10° W 00:33:28 34° SSW 00:38:21 30° S visible
23 Jul 11.4 02:37:23 10° WSW 02:39:42 11° WSW 02:39:42 11° WSW visible
23 Jul 10.6 22:24:54 10° W 22:40:33 48° SSW 22:53:08 19° SE visible
24 Jul 10.8 00:37:25 10° W 00:50:59 28° SW 00:54:29 26° SSW visible
24 Jul 10.7 22:43:05 10° W 22:58:23 44° SSW 23:09:19 22° SSE visible
25 Jul 11.0 00:56:32 10° W 01:08:24 22° SW 01:10:40 22° SSW visible
25 Jul 10.8 23:01:24 10° W 23:16:08 38° SSW 23:25:33 23° SSE visible
26 Jul 11.2 01:16:29 10° WSW 01:25:46 17° SW 01:26:55 17° SW visible
26 Jul 10.6 21:08:49 10° W 21:22:54 50° SSW 21:39:37 10° SE visible
26 Jul 10.9 23:19:54 10° W 23:33:49 32° SSW 23:41:50 23° S visible
27 Jul 11.5 01:38:47 10° WSW 01:43:04 11° SW 01:43:12 11° SW visible
27 Jul 10.7 21:26:54 10° W 21:40:50 46° SSW 21:56:49 11° SE visible
27 Jul 11.0 23:38:41 10° W 23:51:25 27° SW 23:58:11 21° S visible
28 Jul 10.8 21:45:06 10° W 21:58:41 41° SSW 22:13:12 13° SE visible
28 Jul 11.2 23:57:59 10° W 00:08:57 21° SW 00:14:34 18° SSW visible
29 Jul 10.9 22:03:26 10° W 22:16:31 35° SSW 22:29:39 14° SSE visible
30 Jul 11.4 00:18:20 10° WSW 00:26:26 15° SW 00:31:02 13° SSW visible
30 Jul 11.1 22:22:00 10° W 22:34:16 29° SSW 22:46:10 14° SSE visible
31 Jul 11.3 22:40:56 10° W 22:51:58 23° SW 23:02:45 13° S visible
01 Aug 11.5 23:00:34 10° WSW 23:09:39 18° SW 23:19:24 10° S visible
